Location: Elstree
(51.6403°N, 0.2969°W)
Time: 21:04:14
(UTC+00:00)

deb Delta 107 - Pass Details

Date: 28 January 2022
Orbit: 707 x 861 km, 97.7° (Epoch: 21 May)

Event Time Altitude Azimuth Distance (km) Brightness Sun altitude
Rises 06:44:36 0° 14° (NNE) 3,117 ? -9.6°
Reaches altitude 10° 06:46:52 10° 16° (NNE) 2,195 ? -9.2°
Maximum altitude 06:51:40 76° 103° (ESE) 743 ? -8.5°
Drops below altitude 10° 06:56:32 10° 189° (S) 2,224 ? -7.8°
Sets 06:58:50 0° 191° (SSW) 3,160 ? -7.5°
